Tracking 19245 objects as of 14-Aug-2018
HD Live streaming from Space Station
objects crossing your sky now

NOAA 16 DEB

Track NOAA 16 DEB now!
10-day predictions


NORAD ID: 41204
Int'l Code: 2000-055DH
Perigee: 853.5 km
Apogee: 890.6 km
Inclination: 98.9 °
Period: 102.2 minutes
Semi major axis: 7243 km
RCS: Unknown
Launch date: September 21, 2000
Source: United States (US)
Launch site: AIR FORCE WESTERN TEST RANGE (AFWTR)

Note: This is SATELLITE DEBRIS
aabbcc
Your satellite tracking list
Your tracking list is empty




NASA's NSSDC Master Catalog

Two Line Element Set (TLE):
1 41204U 00055DH  18224.44027495 +.00000197 +00000-0 +14033-3 0  9994
2 41204 098.9067 295.7683 0025636 077.7540 282.6498 14.08373724137812
Source of the keplerian elements: AFSPC